Location: Saint-Usage
(47.1052°N, 5.2587°E)
Time: 19:07:50
(UTC+02:00)

ISS - Pass Details

Date: 23 September 2021
Orbit: 417 x 423 km, 51.6° (Epoch: 22 October)

Event Time Altitude Azimuth Distance (km) Brightness Sun altitude
Rises 21:39:59 0° 281° (WNW) 2,364 1.5 -21.6°
Reaches altitude 10° 21:42:11 10° 291° (WNW) 1,501 0.2 -21.9°
Enters shadow 21:45:15 36° 356° (N) 687 -2.5 -22.4°
